Location: Wildlife_Club
(35.6000°N, 81.4330°W)
Time: 04:10:33
(UTC-04:00)

A-11 Canister half - Pass Details

Date: 01 July 2019
Orbit: 1514 x 1685 km, 47.2° (Epoch: 19 July)

Event Time Altitude Azimuth Distance (km) Brightness Sun altitude
Rises 16:13:25 0° 303° (WNW) 4,828 12.0 52.5°
Reaches altitude 10° 16:16:36 10° 301° (WNW) 3,816 11.7 51.9°
Maximum altitude 16:26:06 65° 222° (SW) 1,689 10.7 49.9°
Drops below altitude 10° 16:35:16 10° 143° (SE) 3,686 10.9 48.1°
Sets 16:38:17 0° 140° (SE) 4,655 11.3 47.5°
